Weather History for Truth Or Consequences, NM

Change the Weather History Date:

Tuesday, October 11, 2011

  Actual Average Record
Temperature  
Mean Temperature 66 °F -  
Max Temperature 80 °F 76 °F 88 °F (1996)
Min Temperature 51 °F 49 °F 42 °F (2001)
Degree Days  
Heating Degree Days 0    
Month to date heating degree days 43  
Since 1 July heating degree days 43  
Cooling Degree Days 1    
Month to date cooling degree days 11  
Year to date cooling degree days 2108  
Growing Degree Days 16 (Base 50)    
Moisture  
Dew Point 29 °F    
Average Humidity 31    
Maximum Humidity 51    
Minimum Humidity 11    
Precipitation  
Precipitation 0.00 in - 0.62 in (2000)
Month to date precipitation 0.62  
Year to date precipitation 5.04  
Sea Level Pressure  
Sea Level Pressure 29.79 in    
Wind  
Wind Speed 7 mph (WNW)    
Max Wind Speed 16 mph    
Max Gust Speed 25 mph    
Visibility 10 miles    
Events      
T = Trace of Precipitation, MM = Missing Value Source: NWS Daily Summary

Daily Weather History Graph

Daily Weather History Graph

Search for Another Location

Airport:

Trip Planner

Search our weather history database for the weather conditions in past years. The results will help you decide how hot, cold, wet, or windy it might be!

Date:

Astronomy

Oct. 11, 2011 Rise Set
Actual Time 7:10 AM MDT 6:40 PM MDT
Civil Twilight 6:45 AM MDT 7:05 PM MDT
Nautical Twilight 6:16 AM MDT 7:34 PM MDT
Astronomical Twilight 5:48 AM MDT 8:03 PM MDT
Moon 6:17 PM MDT (10/11) 6:49 AM MDT (10/11)
Length of Visible Light 12h 20m
Length of Day
11h 30m
Full, 100% of the Moon is Illuminated
Oct 11
Full
Oct 11
Full
Oct 19
Last Quarter
Oct 26
New
Nov 2
First Quarter

Hourly Weather History & Observations

Time (MDT) Temp. Dew Point Humidity Pressure Visibility Wind Dir Wind Speed Gust Speed Precip Events Conditions
12:53 AM 55.0 °F 37.0 °F 51% 29.83 in 10.0 mi Calm Calm - N/A   Clear
1:53 AM 53.1 °F 36.0 °F 52% 29.82 in 10.0 mi West 6.9 mph - N/A   Clear
2:53 AM 53.1 °F 34.0 °F 48% 29.81 in 10.0 mi West 4.6 mph - N/A   Clear
3:53 AM 53.1 °F 33.1 °F 47% 29.80 in 10.0 mi West 8.1 mph - N/A   Clear
4:53 AM 53.1 °F 33.1 °F 47% 29.80 in 10.0 mi WNW 6.9 mph - N/A   Clear
5:53 AM 53.1 °F 33.1 °F 47% 29.80 in 10.0 mi West 6.9 mph - N/A   Clear
6:53 AM 53.1 °F 30.9 °F 43% 29.82 in 10.0 mi WNW 10.4 mph - N/A   Clear
7:53 AM 53.1 °F 30.9 °F 43% 29.84 in 10.0 mi WNW 11.5 mph - N/A   Clear
8:53 AM 62.1 °F 30.0 °F 30% 29.85 in 10.0 mi NW 9.2 mph - N/A   Clear
9:53 AM 64.0 °F 33.1 °F 31% 29.86 in 10.0 mi East 4.6 mph - N/A   Clear
10:53 AM 66.0 °F 34.0 °F 30% 29.86 in 10.0 mi Variable 4.6 mph - N/A   Clear
11:53 AM 70.0 °F 30.0 °F 23% 29.83 in 10.0 mi Calm Calm - N/A   Clear
12:53 PM 72.0 °F 28.0 °F 20% 29.80 in 10.0 mi SSW 5.8 mph - N/A   Clear
1:53 PM 75.0 °F 26.1 °F 16% 29.76 in 10.0 mi Variable 6.9 mph - N/A   Clear
2:53 PM 77.0 °F 25.0 °F 15% 29.73 in 10.0 mi SSE 11.5 mph 18.4 mph N/A   Clear
3:53 PM 78.1 °F 25.0 °F 14% 29.71 in 10.0 mi Calm Calm - N/A   Clear
4:53 PM 79.0 °F 25.0 °F 14% 29.70 in 10.0 mi ESE 3.5 mph - N/A   Clear
5:53 PM 79.0 °F 24.1 °F 13% 29.70 in 10.0 mi Calm Calm - N/A   Clear
6:53 PM 75.9 °F 17.1 °F 11% 29.72 in 10.0 mi NNW 11.5 mph - N/A   Clear
7:53 PM 71.1 °F 21.0 °F 15% 29.76 in 10.0 mi NW 8.1 mph - N/A   Clear
8:53 PM 69.1 °F 25.0 °F 19% 29.76 in 10.0 mi NNW 11.5 mph - N/A   Clear
9:53 PM 66.9 °F 27.0 °F 22% 29.79 in 10.0 mi North 8.1 mph - N/A   Clear
10:53 PM 66.9 °F 28.9 °F 24% 29.80 in 10.0 mi NNW 12.7 mph 21.9 mph N/A   Clear
11:53 PM 64.0 °F 30.9 °F 29% 29.81 in 10.0 mi NNW 10.4 mph - N/A   Clear